Tracking 25372 objects as of 24-Jan-2022
HD Live streaming from Space Station
objects crossing your sky now

ESA/GOES

Track ESA/GOES now!
ESA/GOES is classified as:


NORAD ID: 9931
Int'l Code: 1977-029A
Perigee: 2,767.2 km
Apogee: 38,401.1 km
Inclination: 27.7 °
Period: 734.0 minutes
Semi major axis: 26955 km
RCS: 4.0849 m2 (large)
Launch date: April 20, 1977
Source: European Space Agency (ESA)
Launch site: AIR FORCE EASTERN TEST RANGE (AFETR)
aabbcc
Your satellite tracking list
Your tracking list is empty




NASA's NSSDC Master Catalog

Two Line Element Set (TLE):
1 09931U 77029A   22023.10180201 -.00000037  00000-0  00000-0 0  9990
2 09931  27.6714 338.1010 6609858 180.4651 178.5257  1.96173439320333
Source of the keplerian elements: AFSPC